Regional Weather Roundup
Issued by NWS

Home | Current Version | Previous Version | Graphics & Text | Print | Product List | Glossary On
Versions: 1 2 3 4 5 6 7 8 9 10 11 12 13 14 15 16 17 18 19 20 21 22 23 24 25 26 27 28 29 30 31 32 33 34 35 36 37 38 39 40 41 42 43 44 45 46 47 48 49 50
000
ASUS43 KLOT 160403
RWRIL

ILLINOIS REGIONAL WEATHER ROUNDUP
NATIONAL WEATHER SERVICE CHICAGO/ROMEOVILLE IL
1000 PM CST SUN JAN 15 2017

NOTE: "FAIR" INDICATES FEW OR NO CLOUDS BELOW 12,000 FEET WITH NO
SIGNIFICANT WEATHER AND/OR OBSTRUCTIONS TO VISIBILITY.

* THESE STATIONS ARE NOT UNDER NWS QUALITY CONTROL. THEY ALSO MAY NOT
  REPORT WEATHER SUCH AS PRECIPITATION OR FOG.

ILZ001-002-007-009-015-016-024-160500-
NORTHWEST ILLINOIS

CITY           SKY/WX    TMP DP  RH WIND       PRES   REMARKS
MOLINE         CLOUDY    33  25  72 E6        30.27S WCI  28
STERLING*      CLOUDY    28  26  92 E5        30.29F FOG     WCI  23
SAVANNA*       CLOUDY    29  20  68 NE3       30.29S
$$

ILZ003-004-008-010-011-017-018-160500-
NORTH CENTRAL ILLINOIS

CITY           SKY/WX    TMP DP  RH WIND       PRES   REMARKS
ROCKFORD       CLOUDY    28  22  78 E5        30.31F WCI  23
FREEPORT*      CLOUDY    26  21  83 CALM      30.31S
ROCHELLE*      PTCLDY    29  25  84 NE6       30.30S WCI  23
DE KALB*       CLOUDY    29  25  84 E5        30.30F WCI  24
$$

ILZ005-006-012>014-019>023-160500-
NORTHEAST ILLINOIS

CITY           SKY/WX    TMP DP  RH WIND       PRES   REMARKS
CHICAGO-OHARE  CLOUDY    29  23  78 CALM      30.31F
CHICAGO-MIDWAY CLOUDY    32  25  75 E5        30.31F WCI  27
AURORA         MOCLDY    30  25  81 NE6       30.30F HAZE    WCI  24
LANSING*       MOCLDY    32  30  92 NE3       30.32F
JOLIET*        PTCLDY    33  30  89 CALM      30.31F FOG
WAUKEGAN       PTCLDY    25  22  88 SW3       30.31S FOG
DUPAGE AIRPORT CLOUDY    30  22  72 E3        30.30F
WHEELING       CLOUDY    27  20  75 SE3       30.33F
MORRIS*        CLOUDY    32  29  89 CALM      30.30S FOG
ROMEOVILLE*    MOCLDY    31  30  97 E6        30.30F WCI  25
NORTHERLY ISL    N/A     31  27  85 E1          N/A
$$

LMZ740>746-160500-
SOUTHERN LAKE MICHIGAN

STATION/POSITION SKY/WX   TEMP    WIND        PRES    VSBY  WAVE
                          AIR SEA DIR/SP/G                  HT/PER
                          (F)     (DEG/KT/KT) (MB)    (MI)  (FT/S)
HARRISON CRIB              34     150/  5/  5   N/A
BURNHAM HARBOR             31      90/  1/  2   N/A
CALUMET HARBOR             32      CALM  /  1 1026.4S
BURNS HARBOR               33     170/  4/  8 1027.8S
MICHIGAN CITY              32     110/  3/  4   N/A
$$

ILZ025>027-034>036-040-047-049-050-058-095>099-160500-
WEST-CENTRAL ILLINOIS

CITY           SKY/WX    TMP DP  RH WIND       PRES   REMARKS
QUINCY         CLOUDY    32  31  96 SE6       30.23F FOG     WCI  26
GALESBURG*     CLOUDY    32  29  88 E6        30.27S WCI  26
MACOMB*        CLOUDY    32  31  96 E7        30.28F FOG     WCI  26
JACKSONVILLE*  CLOUDY    32  32  99 E7        30.25F FOG     WCI  26
PITTSFIELD*    CLOUDY    32  32  99 E5        30.25S FOG     WCI  28
$$

ILZ028>032-037-038-041>044-048-051>054-059>061-160500-
CENTRAL ILLINOIS

CITY           SKY/WX    TMP DP  RH WIND       PRES   REMARKS
BLOOMINGTON    CLOUDY    32  30  92 E7        30.28S FOG     WCI  26
DECATUR        CLOUDY    33  33 100 E5        30.28S FOG     WCI  29
PEORIA         CLOUDY    33  30  88 E5        30.29S FOG     WCI  29
LACON*         CLOUDY    32  30  90 SE5       30.29F WCI  28
LINCOLN*       CLOUDY    34  33  96 E5        30.28S FOG     WCI  30
SPRINGFIELD    CLOUDY    35  32  88 E7        30.27F FOG     WCI  29
TAYLORVILLE    CLOUDY    33  32  96 CALM      30.27F FOG
$$

ILZ033-039-045-046-055>057-062-063-160500-
EAST-CENTRAL ILLINOIS

CITY           SKY/WX    TMP DP  RH WIND       PRES   REMARKS
CHAMPAIGN      CLOUDY    33  31  92 E9        30.28F FOG     WCI  25
MATTOON        CLOUDY    34  33  96 E3        30.28R FOG
PARIS*         CLOUDY    33  32  97 CALM      30.30S FOG
$$

ILZ079-100>102-160500-
SOUTHWEST ILLINOIS

CITY           SKY/WX    TMP DP  RH WIND       PRES   REMARKS
ALTON          CLOUDY    34  34 100 E6        30.26F FOG     WCI  29
BELLEVILLE     CLOUDY    37  37 100 E5        30.24F FOG     WCI  34
CAHOKIA*       CLOUDY    38  36  92 E3        30.25F FOG
SPARTA*        FOG       37  37  99 E8        30.25F VSB 3/4 WCI  31
$$

ILZ064>066-069>071-074>076-080>082-084>086-088>090-092>094-160500-
SOUTH-CENTRAL ILLINOIS

CITY           SKY/WX    TMP DP  RH WIND       PRES   REMARKS
CARBONDALE     CLOUDY    39  39 100 E3        30.25F FOG
CAIRO*         CLOUDY    40  40 100 E5        30.25S FOG
EFFINGHAM*     CLOUDY    36  36 100 E3        30.29S FOG
MARION         CLOUDY    41  39  93 E3        30.26F FOG
MT. VERNON     CLOUDY    38  38 100 E3        30.26F FOG
CENTRALIA*     CLOUDY    38  38 100 E5        30.25F FOG     WCI  35
SALEM*         CLOUDY    38  37  94 E6        30.26F FOG     WCI  34
$$

ILZ067-068-072-073-078-083-087-091-160500-
SOUTHEAST ILLINOIS

CITY           SKY/WX    TMP DP  RH WIND       PRES   REMARKS
LAWRENCEVILLE  CLOUDY    38  38 100 E5        30.29S WCI  34
FLORA*         CLOUDY    39  38  97 E5        30.28F FOG
FAIRFIELD*     CLOUDY    38  38 100 CALM      30.26F FOG
HARRISBURG*    CLOUDY    40  40 100 E7        30.27F FOG
ROBINSON*      CLOUDY    36  36  98 SE5       30.31S FOG     WCI  32
CARMI*         CLOUDY    40  40  99 E3        30.27F FOG
$$

ABBREVIATIONS USED IN REMARKS
   TC - TEMPERATURE IN CELSIUS
  WCI - WIND CHILL INDEX
   HX - HEAT INDEX
  VSB - VISIBILITY
$$





USA.gov is the U.S. government's official web portal to all federal, state and local government web resources and services.